Home   Weather   Uluru   Past weeks

Flag for Australia Past Weather in Uluru, Northern Territory, Australia — Yesterday and Last 2 Weeks

Now
57 °F

Clear.


Feels Like: 56 °F
Forecast: 42 / 77 °F
Wind: 7 mph from South

Location: Ayers Rock

Current Time: Sep 29, 2016 at 9:30:14 PM

Latest Report: Sep 29, 2016 at 8:30 PM


Visibility: N/A

Pressure: 29.95 "Hg (27.05 "Hg at 857m altitude)

Humidity: 29%

Dew Point: 25 °F

Location of UluruLocation

Past Weather in Uluru — Graph

°F

Uluru Temperature Yesterday

Maximum temperature yesterday: 86 °F (at 1:30 PM)
Minimum temperature yesterday: 59 °F (at 11:30 PM)
Average temperature yesterday: 75 °F

High & Low Weather Summary for the Past Weeks

 TemperatureHumidityPressure
High90 °F (Sep 23, 4:34 PM)100% (Sep 15, 4:30 AM)30.18 "Hg (Sep 15, 4:30 AM)
Low41 °F (Sep 21, 4:30 AM)6% (Sep 28, 4:30 PM)29.65 "Hg (Sep 19, 4:30 PM)
Average65 °F42%29.95 "Hg
* Reported Sep 14 7:30 PM — Sep 29 7:30 PM, Uluru, Weather by CustomWeather, © 2016

Note: Actual official high and low records may vary slightly from our data, if they occured in-between our weather recording intervals... More about our weather records

Advertising

Uluru Weather History for the Previous 24 Hours

Scroll right to see more
 ConditionsComfort  
Time TempWeatherWind HumidityBarometerVisibility
7:30 PM
Thu, Sep 29
61 °FClear.7 mph22%29.92 "HgN/A
6:30 PM68 °FSunny.8 mph14%29.92 "HgN/A
5:30 PM72 °FSunny.8 mph10%29.92 "HgN/A
4:30 PM70 °FSunny.12 mph13%29.92 "HgN/A
3:30 PM72 °FSunny.9 mph14%29.92 "HgN/A
2:30 PM68 °FSunny.12 mph18%29.95 "HgN/A
1:30 PM64 °FSunny.13 mph19%29.98 "HgN/A
12:30 PM61 °FSunny.12 mph23%30.01 "HgN/A
11:30 AM59 °FSunny.14 mph27%30.04 "HgN/A
10:30 AM55 °FSunny.15 mph31%30.07 "HgN/A
9:30 AM54 °FSunny.16 mph35%30.07 "HgN/A
8:30 AM50 °FSunny.17 mph40%30.07 "HgN/A
7:30 AM48 °FSunny.16 mph43%30.04 "HgN/A
6:30 AM45 °FClear.9 mph42%30.04 "HgN/A
5:30 AM46 °FClear.10 mph37%30.01 "HgN/A
4:30 AM46 °FClear.5 mph40%29.98 "HgN/A
3:30 AM48 °FClear.3 mph34%29.95 "HgN/A
2:30 AM50 °FClear.5 mph32%29.95 "HgN/A
1:30 AM54 °FClear.3 mph26%29.95 "HgN/A
12:30 AM57 °FClear.10 mph23%29.95 "HgN/A
11:30 PM
Wed, Sep 28
59 °FClear.10 mph20%29.95 "HgN/A
10:30 PM63 °FClear.15 mph15%29.95 "HgN/A
9:30 PM66 °FClear.15 mph11%29.92 "HgN/A
Weather by CustomWeather, © 2016

See weather overviewHow to use our weather pages